Flag for Canada Weather past 2 weeks in Morden, Manitoba, Canada

Now
8 °F

Frigid.


Feels Like: 8 °F
Forecast: -4 / 15 °F
Wind: 2 mph from South

Location: Morden CDA CS

Current Time: Dec 17, 2014 at 6:57:51 PM

Latest Report: Dec 17, 2014 at 6:00 PM


Visibility: N/A

Pressure: 30.39 "Hg

Humidity: 86%

Dew point: 5 °F

Location of MordenLocation

Historic Weather in Morden — Graph

°F

Morden temperature yesterday

Maximum temperature yesterday: 11 °F (at 3:00 PM)
Minimum temperature yesterday: 2 °F (at 10:00 PM)
Average temperature yesterday: 7 °F

Past Weeks' High & Low Weather Summary

 TemperatureHumidityPressure
High38 °F (Dec 12, 2:00 PM)100% (Dec 13, 7:00 PM)30.60 "Hg (Dec 13, 7:00 PM)
Low-3 °F (Dec 9, 5:00 AM)64% (Dec 2, 7:00 PM)29.80 "Hg (Dec 13, 4:00 PM)
Average19 °F84%30.16 "Hg
* Reported Dec 2 5:00 PM — Dec 17 5:00 PM, Morden, Weather by CustomWeather, © 2014

Note: Actual official high and low records may vary slightly from our data, if they occured in-between our weather recording intervals... More about our weather records

Advertising

Morden weather history for previous 24 hours

 ConditionsComfort  
Time TempWeatherWind HumidityBarometerVisibility
5:00 PM
Dec 17
13 °FCold.2 mph81%30.39 "HgN/A
4:00 PM15 °FCold.3 mph77%30.39 "HgN/A
3:00 PM16 °FCold.2 mph77%30.40 "HgN/A
2:00 PM15 °FCold.3 mph77%30.42 "HgN/A
1:00 PM14 °FCold.2 mph76%30.43 "HgN/A
12:00 PM13 °FCold.1 mph78%30.45 "HgN/A
11:00 AM10 °FFrigid.2 mph91%30.46 "HgN/A
10:00 AM6 °FFrigid.1 mph89%30.46 "HgN/A
9:00 AM-1 °FFrigid.2 mph86%30.45 "HgN/A
8:00 AM-3 °FFrigid.3 mph85%30.45 "HgN/A
7:00 AM-3 °FFrigid.2 mph86%30.46 "HgN/A
6:00 AM-2 °FFrigid.2 mph86%30.46 "HgN/A
5:00 AM-1 °FFrigid.1 mph86%30.46 "HgN/A
4:00 AM-2 °FFrigid.3 mph85%30.47 "HgN/A
3:00 AM-3 °FFrigid.2 mph85%30.47 "HgN/A
2:00 AM0 °FFrigid.2 mph87%30.47 "HgN/A
1:00 AM2 °FFrigid.3 mph87%30.46 "HgN/A
12:00 AM4 °FFrigid.3 mph86%30.46 "HgN/A
11:00 PM
Dec 16
4 °FFrigid.3 mph88%30.46 "HgN/A
10:00 PM2 °FFrigid.2 mph79%30.47 "HgN/A
9:00 PM4 °FFrigid.3 mph85%30.47 "HgN/A
8:00 PM5 °FFrigid.5 mph87%30.47 "HgN/A
7:00 PM5 °FFrigid.5 mph86%30.47 "HgN/A
6:00 PM7 °FFrigid.5 mph85%30.47 "HgN/A
Weather by CustomWeather, © 2014

See weather overviewHow to use our weather pages